« Back
NWS Peachtree City, Ga » Text Product » GA Regional Weather Roundup


Printer-friendly Version
Current Version              Previous Versions:   1  2  3  4  5  6  7  8  9  

Regional Weather Roundup

810
ASUS42 KFFC 270303
RWRGA
WEATHER ROUNDUP FOR GEORGIA
NATIONAL WEATHER SERVICE PEACHTREE CITY GA
1100 PM EDT FRI AUG 26 2016

NOTE: "FAIR" INDICATES FEW OR NO CLOUDS BELOW 12,000 FEET WITH NO
SIGNIFICANT WEATHER AND/OR OBSTRUCTIONS TO VISIBILITY.

* = USE WITH CAUTION. THE STATIONS MARKED WITH AN ASTERISK MAY NOT
REPORT WEATHER SUCH AS PRECIPITATION, FOG, OR THUNDER AND ARE NOT
QUALITY CONTROLLED BY NWS.

THE REMARK "TC" DENOTES TEMPERATURE READING IN DEGREES CELSIUS.

GAZ001>058-270400-
NORTH GEORGIA

CITY           SKY/WX    TMP DP  RH WIND       PRES   REMARKS
ATLANTA        MOCLDY    85  71  63 E8        30.11R HX  90
ATHENS         CLEAR     75  74  96 CALM      30.10R
CHAMBLEE       PTCLDY    77  71  82 N5        30.11S
PEACHTREE CITY PTCLDY    76  73  91 CALM      30.10R
ROME           PTCLDY    76  72  87 N9        30.08S
WEST ATLANTA   MOCLDY    80  72  76 NE5       30.10R
GAINESVILLE    CLEAR     76  73  91 CALM      30.15R
CARTERSVILLE   CLOUDY    81  74  79 CALM      30.10R


CITY           SKY/WX    TMP DP  RH WIND       PRES   REMARKS
DALTON*        CLOUDY    77  70  78 E9        30.12R
MARIETTA       MOCLDY    76  72  88 NW1       30.11R
KENNESAW*      RAIN      75  72  88 CALM      30.09R
CANTON*        RAIN      73  70  88 NE12      30.16R
BLAIRSVILLE*     N/A    N/A N/A N/A MISG      30.20R
$$

GAZ059>098-102>109-270400-
CENTRAL GEORGIA

CITY           SKY/WX    TMP DP  RH WIND       PRES   REMARKS
AUGUSTA-BUSH   CLEAR     79  72  79 SE6       30.07R
AUGUSTA-DANIEL CLEAR     84  71  65 SE6       30.09R
COLUMBUS       PTCLDY    84  69  60 CALM      30.06R
MACON          CLEAR     78  69  73 SE3       30.07R
ROBINS AFB     CLEAR     77  71  81 SE5       30.06R


CITY           SKY/WX    TMP DP  RH WIND       PRES   REMARKS
LAGRANGE*      CLOUDY    77  75  93 CALM      30.07S
MILLEDGEVILLE* CLEAR     79  73  83 CALM      30.08R
$$

GAZ099>101-110>166-270400-
SOUTH GEORGIA

CITY           SKY/WX    TMP DP  RH WIND       PRES   REMARKS
SAVANNAH       PTCLDY    78  69  73 E3        30.08R
VALDOSTA       CLEAR     78  73  84 CALM      30.06R
ALMA           CLEAR     74  67  78 E3        30.07R
ST SIMONS      CLEAR     80  69  69 E6        30.06R
FT STEWART     CLEAR     72  69  90 CALM      30.06R
ALBANY         CLEAR     80  69  69 SE3       30.07R
HUNTER AFB     PTCLDY    76  73  88 SE3       30.06R
MOODY AFB      CLEAR     76  70  81 E2        30.05R
BRUNSWICK      CLEAR     72  72 100 CALM      30.08R


CITY           SKY/WX    TMP DP  RH WIND       PRES   REMARKS
BAINBRIDGE*    PTCLDY    82  70  65 CALM      30.05R
MOULTRIE*      CLEAR     79  70  73 CALM      30.06S
VIDALIA*       CLEAR     79  73  83 CALM      30.08R
WAYCROSS*        N/A     75  72  91 CALM      30.06S
DOUGLAS*       CLEAR     77  64  65 E3        30.09R
$$




USA.gov is the U.S. government's official web portal to all federal, state and local government web resources and services.